sat.trackr.live / text

‹ back to catalog

STARLINK-36431

NORAD 67421 · 2026-005T

PAYLOAD ACTIVE UNKNOWN

§ Identity

Operator
Country
US
Launch date
2026-01-12
Launch site
AFETR
Launch vehicle
Mass (kg)
RCS (m²)

Purposes: comms

External: N2YO · Heavens-Above · Gunter

§ Orbital elements

Epoch: 2026-09-19T08:52:48.837216Z

Period
94.27 min
Inclination
42.9999°
Eccentricity
0.0001126
Mean motion
15.27590806 rev/d
Perigee alt
482.2 km
Apogee alt
483.8 km
Semi-major
6,861.2 km
B*
5.0498e-4
RAAN
224.5057°
Arg perigee
283.0281°
Mean anomaly
77.0445°
Rev number
3,831

§ Raw data

STARLINK-364311 67421U 26005T   26262.37000969  .00013664  00000+0  50498-3 0  99932 67421  42.9999 224.5057 0001126 283.0281  77.0445 15.27590806 38318

JSON: /api/v1/satellites/67421 · /tle

For live sub-satellite position, see the globe view (requires WebGL).

§ Visibility from observer

Set your observer location to see the next 7 days of passes ≥ 10°. The values pass through the URL so the page stays shareable.

No JS? Fill the form by hand. The geolocation button needs JavaScript.